SCP
1 1 1 1 1 1 1 1 1 1 1 1 1 1 1 1 1 1 1 1 1 1 1 1 1 1 1 1 1 1 1 1 1 1 1 1 1 2 2 2 2 2 2
2 2 1 1 1 1 1 1 1 1 1 1 1 1 1 1 1 1 1 1 1 1 1 1 1 1 1 1 1 1 1 1 1 1 1 1 1 2 2 2 2 2 2
2 2 2 1 1 1 1 1 1 1 1 1 1 1 1 1 1 1 1 1 1 1 1 1 1 1 1 1 1 1 1 1 1 1 1 1 1 2 2 2 2 2 2
2 2 2 2 1 1 1 1 1 1 1 1 1 1 1 1 1 1 1 1 1 1 2 2 1 1 1 1 1 1 1 1 1 1 1 1 1 1 1 1 1 1 1
2 3 3 2 2 1 1 1 1 1 1 1 1 1 2 2 2 2 2 1 1 1 2 2 2 1 1 1 1 1 1 1 1 1 1 1 1 1 1 1 1 1 1
2 3 3 3 2 2 1 1 1 1 2 2 1 2 2 2 2 2 2 2 2 2 2 2 2 2 1 1 1 1 2 2 2 1 1 2 1 1 1 1 1 1 1
2 2 2 2 2 2 2 1 1 1 2 2 2 2 2 2 3 3 3 2 2 2 2 2 2 2 2 1 1 2 2 2 2 2 2 2 2 2 1 1 1 1 1
2 2 2 2 2 2 2 2 2 1 1 1 2 2 2 3 3 3 3 3 2 2 2 2 3 3 2 2 2 2 2 2 2 2 2 2 2 2 1 1 1 1 1
2 2 2 2 2 2 2 2 2 2 1 1 2 2 2 3 3 3 3 3 3 3 3 3 3 3 3 2 2 2 2 1 1 1 1 2 2 2 2 1 1 1 1
2 2 3 3 3 3 2 2 2 2 2 1 1 2 2 2 2 3 2 2 2 3 3 3 3 3 3 3 3 2 2 1 1 1 1 1 2 2 2 2 1 1 1
2 2 2 3 3 3 3 3 3 2 2 2 2 1 1 1 2 2 2 2 2 2 3 3 3 3 3 3 3 2 2 1 1 1 1 1 1 2 2 2 1 1 1
2 2 2 2 3 4 4 4 4 3 2 2 2 2 2 2 2 2 2 2 2 2 2 3 3 2 3 3 3 2 2 1 1 1 1 1 1 1 2 1 1 1 1
3 3 3 3 3 3 3 3 3 3 2 2 2 2 2 2 2 2 2 2 2 2 2 2 2 2 2 3 3 2 2 1 1 1 1 1 1 1 1 1 1 1 1
4 4 4 4 3 3 3 3 3 3 2 2 2 2 3 2 2 2 3 3 2 2 2 2 2 2 2 2 3 3 2 2 1 1 1 1 1 1 1 1 1 1 1
5 5 5 4 4 4 4 4 3 3 3 3 3 3 3 3 2 3 3 4 3 2 2 2 2 2 2 2 2 2 3 2 2 1 1 1 1 1 1 1 1 1 1
6 6 6 5 5 4 4 4 4 4 4 4 3 3 3 3 3 3 4 4 4 3 2 2 3 3 3 2 2 2 2 2 2 1 1 1 1 1 0 0 1 1 1
6 6 6 6 5 5 5 5 5 4 4 4 4 4 4 4 4 4 3 3 3 3 2 2 3 3 3 3 3 2 2 2 1 1 1 1 1 1 0 0 1 1 1
6 6 5 5 5 5 5 5 5 5 5 5 5 5 5 5 5 4 4 3 3 3 3 3 3 3 4 4 4 3 3 3 2 1 1 1 1 0 0 0 0 0 0
7 5 3 3 3 4 4 4 4 4 5 5 6 6 6 6 6 5 5 4 4 3 3 3 3 4 4 4 4 4 4 3 3 2 1 1 1 0 0 0 0 0 0
6 4 2 2 2 2 2 2 2 3 3 4 5 6 6 6 6 6 6 5 5 4 4 4 4 4 4 4 4 4 4 4 4 3 2 1 1 1 1 0 0 0 0
4 3 2 2 2 1 1 1 1 1 2 3 3 4 5 5 5 5 5 5 5 5 5 4 4 4 4 5 5 5 4 5 4 4 3 3 2 2 1 1 1 0 0
3 3 2 2 2 2 1 1 1 1 1 2 2 2 3 3 3 3 3 3 4 4 5 5 5 5 5 5 5 5 5 5 5 4 4 4 3 2 2 2 1 1 0
3 3 3 2 2 2 2 1 1 1 1 1 1 1 1 2 2 2 2 2 2 3 3 4 5 5 5 6 6 6 6 6 5 5 5 4 4 3 3 2 2 1 0
4 4 4 3 3 2 2 1 0 1 1 1 1 1 1 1 1 1 1 2 2 3 3 3 4 4 4 5 5 6 6 6 6 5 5 5 4 4 4 3 2 1 0
4 4 4 3 3 3 2 1 1 1 2 2 2 2 1 1 1 1 2 2 3 3 4 3 3 3 2 2 3 4 5 6 5 5 5 5 5 5 4 4 3 2 1
4 4 4 4 4 3 2 1 1 1 2 2 2 2 1 1 1 1 1 2 3 4 4 4 3 2 2 1 1 3 4 5 5 5 5 5 5 5 5 5 4 3 2
Wind_Speed
1 1 1 1 1 1 1 1 1 1 0 1 1 1 1 1 1 2 4 7 7 7 7 8 9 9 9 10 10 11 11 11 11 11 11 12 12 12 12 12 12 12 12
1 1 1 0 1 1 1 0 0 1 0 0 0 0 1 1 1 1 2 6 7 7 7 7 8 8 8 9 10 10 10 10 10 11 11 12 12 12 12 12 12 12 12
1 1 1 0 1 0 1 1 1 1 1 1 1 1 1 1 1 1 1 2 5 8 7 7 6 7 7 9 9 9 10 10 10 11 11 11 12 12 12 12 12 13 12
1 1 1 1 0 1 1 1 1 0 0 1 1 0 0 1 1 1 1 1 2 3 7 7 6 6 7 9 9 9 10 11 11 12 12 12 12 12 12 12 12 12 12
1 1 1 1 1 1 1 1 1 1 0 1 1 1 1 1 1 1 1 1 2 2 2 7 7 5 6 7 7 7 9 9 10 11 12 13 12 12 11 12 12 12 12
1 1 0 1 1 1 1 1 0 0 1 1 2 0 1 1 1 1 1 1 1 2 2 2 4 6 7 6 6 6 7 8 9 9 11 13 13 12 12 12 13 13 12
1 1 2 1 1 1 1 2 1 1 1 1 2 2 2 3 2 2 2 1 1 2 1 2 2 1 4 8 5 5 5 7 8 9 9 10 12 12 13 14 13 13 13
1 0 1 1 1 1 1 2 2 2 1 1 2 2 2 4 3 2 2 2 1 1 2 2 2 2 2 2 4 5 4 5 7 8 8 9 10 11 12 13 13 13 13
1 2 1 2 2 1 1 1 2 2 2 0 2 3 2 1 0 3 2 1 1 1 1 1 3 2 2 2 2 4 3 3 5 7 8 8 9 10 11 13 14 14 13
1 1 1 1 2 1 1 2 1 2 3 2 1 1 3 3 3 1 3 2 2 2 2 2 2 3 2 2 1 2 2 2 4 5 6 8 8 9 10 11 14 14 14
1 1 1 1 1 1 2 2 2 3 2 2 2 1 1 1 3 3 2 1 2 2 1 2 2 1 2 2 2 1 2 2 3 4 5 5 7 8 9 10 12 14 14
0 1 1 1 1 1 1 1 1 1 2 2 3 2 2 2 2 2 3 3 2 1 1 1 2 2 2 3 2 1 2 3 4 4 4 5 6 7 9 10 11 12 14
0 1 1 1 1 1 1 1 0 1 1 2 2 2 2 2 2 3 3 3 4 2 1 2 1 2 3 2 2 1 4 4 4 4 5 5 6 7 8 9 10 11 11
1 1 1 1 1 2 2 1 1 1 1 1 1 2 2 2 3 3 3 4 4 3 2 2 2 2 2 2 0 4 4 5 4 4 5 5 6 6 7 7 8 8 9
1 1 1 1 1 1 2 2 1 1 1 2 2 2 3 2 2 3 3 4 5 5 3 1 2 2 2 2 0 3 3 3 5 6 6 5 5 5 6 6 6 7 7
2 1 1 1 1 1 1 2 1 1 2 2 2 2 3 3 2 3 3 3 4 5 5 3 2 2 2 4 1 3 4 4 7 7 7 7 6 6 6 6 7 7 7
2 1 1 1 2 2 2 2 2 2 3 2 2 2 3 3 3 3 3 3 3 4 5 5 3 2 2 5 3 4 5 5 4 8 8 8 8 8 7 7 8 8 8
1 1 1 1 1 1 2 2 3 3 3 3 3 3 3 3 3 4 3 4 3 4 5 6 5 4 4 4 4 5 5 5 5 5 8 8 9 8 8 8 8 8 8
1 1 1 1 2 2 2 2 3 3 3 4 4 4 4 4 4 4 4 4 4 4 4 5 6 4 4 4 5 6 6 5 7 4 8 9 9 9 9 10 9 9 8
0 0 1 1 1 1 2 3 3 3 3 3 3 4 4 4 5 5 5 4 5 5 4 5 6 5 4 4 4 5 5 4 6 6 4 5 7 10 11 11 11 10 9
1 1 1 2 2 2 2 3 4 3 3 3 3 3 3 3 4 4 5 4 4 5 5 5 5 5 5 4 5 5 6 5 5 5 5 6 5 6 8 10 11 11 10
1 1 2 2 2 2 4 4 5 4 3 3 3 3 3 3 3 4 4 5 5 6 6 6 6 6 6 6 5 6 6 6 6 3 5 6 5 5 5 5 5 7 8
1 1 2 2 2 2 3 3 4 4 3 3 3 4 4 2 2 3 4 6 6 7 8 8 8 8 7 6 7 7 6 7 7 5 5 6 5 6 5 2 4 6 7
1 1 2 2 2 2 2 2 4 4 3 3 3 3 4 4 3 4 5 5 5 5 6 7 8 8 8 7 7 8 7 7 7 6 6 7 6 5 4 3 5 6 8
1 1 1 1 2 1 1 2 5 4 3 3 3 3 4 4 4 5 6 6 6 6 5 6 6 7 7 7 7 7 7 7 7 6 4 6 6 5 4 4 4 7 9
1 1 1 1 2 2 1 2 5 4 3 3 2 2 1 2 4 4 5 6 7 6 6 5 5 7 8 7 8 7 7 7 6 6 3 4 5 4 4 4 3 3 5
Wind_Direction
35 45 27 19 49 81 129 165 86 99 181 182 219 214 221 191 198 194 145 159 178 189 200 207 208 208 208 205 205 206 210 209 208 206 203 201 202 201 202 204 203 201 202
30 28 84 63 61 60 29 313 159 186 219 332 250 207 266 165 159 221 171 160 173 185 201 206 212 210 209 206 206 205 206 209 210 210 207 205 204 203 202 204 205 203 205
27 357 48 76 56 104 174 215 235 201 195 180 184 192 182 144 132 164 211 190 171 177 186 196 208 211 210 206 208 210 207 207 209 208 209 209 208 206 205 204 205 206 207
351 322 25 31 346 241 195 176 244 223 216 208 176 240 164 146 142 152 175 191 196 174 173 184 202 209 209 208 210 215 213 211 211 209 210 211 211 208 207 206 206 205 206
348 313 14 12 273 263 269 259 108 285 240 253 203 185 203 167 148 149 149 179 176 203 181 162 183 198 205 206 208 214 215 214 214 212 213 212 211 210 210 210 208 206 206
15 332 89 6 308 340 316 330 315 273 275 275 271 180 219 189 186 166 208 185 194 200 203 183 183 188 191 197 205 211 213 213 215 217 216 211 208 209 211 213 212 210 210
13 341 345 23 322 352 329 310 285 203 229 251 247 219 188 185 190 201 208 218 200 198 190 193 199 205 181 187 195 209 215 218 218 219 215 208 207 209 211 214 215 214 214
355 17 357 321 346 338 322 314 298 294 259 249 282 266 222 173 183 187 199 202 230 214 196 181 175 199 257 185 158 190 215 226 226 224 220 214 211 212 215 215 217 216 217
29 6 355 328 341 317 351 304 296 292 295 276 310 304 295 312 196 164 192 197 221 232 235 193 191 191 218 232 168 161 198 228 231 230 225 221 217 216 216 217 219 218 217
15 16 339 331 313 322 352 306 336 299 288 279 214 290 319 342 300 228 181 171 199 219 242 251 199 194 209 215 165 88 162 224 235 238 238 232 225 220 219 219 218 219 218
19 357 354 344 322 327 353 349 354 317 293 292 289 255 247 249 274 282 272 247 208 195 207 232 245 228 215 229 226 160 179 226 240 241 242 240 234 227 224 224 224 220 218
88 35 344 338 316 331 347 333 332 340 327 324 306 302 287 278 274 275 274 270 268 217 208 226 239 241 234 233 234 100 224 232 237 242 244 246 242 235 231 230 229 225 223
15 32 347 324 330 321 307 302 285 323 316 302 293 293 294 298 307 297 290 289 285 257 226 232 256 258 248 245 218 207 221 223 233 246 251 252 251 242 236 232 230 227 228
5 357 310 305 317 312 298 287 278 263 293 279 286 297 289 293 295 293 292 294 286 271 237 281 284 274 272 257 100 233 221 197 223 240 249 255 258 253 244 236 231 228 228
339 346 321 297 291 297 300 285 299 305 307 286 278 262 273 283 287 294 288 286 288 290 283 236 266 279 287 281 213 253 254 193 218 231 238 243 251 255 248 241 232 227 225
346 332 314 304 292 287 281 276 268 280 272 276 287 301 289 292 291 283 283 282 283 289 296 307 285 295 327 296 230 271 265 211 217 222 230 236 242 247 243 238 229 225 222
349 339 332 318 311 318 311 297 296 282 272 275 276 274 276 290 295 294 286 281 278 279 281 289 291 307 296 288 291 279 265 255 229 206 219 230 236 240 240 237 228 226 225
359 5 352 327 300 300 295 288 291 298 292 287 288 292 291 285 281 283 287 282 282 280 275 285 291 288 280 277 278 276 274 266 268 200 207 224 229 232 235 234 229 227 227
352 4 6 345 335 322 298 286 284 286 285 285 286 286 290 291 284 283 277 280 280 273 277 279 280 288 279 284 282 270 273 277 274 239 210 215 220 226 231 230 227 227 228
260 296 308 315 325 326 319 303 295 286 283 282 282 282 287 287 285 284 276 274 277 280 273 271 278 281 278 281 279 278 272 257 267 274 266 246 223 221 225 225 224 223 225
244 264 281 290 299 287 315 309 296 288 287 287 285 284 287 292 301 291 294 296 287 278 277 274 276 279 280 286 280 282 284 283 268 270 271 255 235 233 220 221 220 220 222
289 284 282 293 299 324 20 350 309 302 295 294 297 296 284 266 276 258 273 286 288 279 283 284 278 280 283 282 287 285 286 283 278 268 270 267 258 253 243 237 199 201 213
245 271 288 295 308 356 19 354 324 306 302 303 299 299 302 327 307 291 262 251 256 257 265 276 282 285 286 285 286 277 276 282 285 294 280 270 264 260 253 226 169 194 205
249 273 300 311 312 355 25 340 311 287 289 291 295 298 300 310 328 316 296 290 278 264 254 253 270 281 287 294 289 280 280 272 266 264 267 272 267 264 266 237 172 190 193
265 274 289 304 305 337 351 310 297 289 280 290 295 306 306 308 356 327 295 294 292 286 258 250 264 276 288 289 289 285 276 271 270 264 251 265 271 266 260 251 197 184 183
267 274 299 303 310 320 342 304 295 286 298 300 292 287 13 332 348 319 291 292 291 294 300 288 258 255 259 254 245 261 276 278 279 277 273 268 273 269 262 250 249 210 191